Smith Lake Weather Center

Moon Phase Calendar



Smith Lake Water Level
Online Cameras

 


      

Current Conditions in Good Hope
12/7/2021 12:38:22 PM

44°F
Feels Like 42
Clouds
Humidity
38%
Pressure
30.12"
Wind
4.2 mph (ENE)
Dew Point
21°F
UV Index
2/10 (Low)
Visibility
6 mi

Hourly Forecast

Date & Time Tue, Dec 7
12:00 PM
Tue, Dec 7
1:00 PM
Tue, Dec 7
2:00 PM
Tue, Dec 7
3:00 PM
Tue, Dec 7
4:00 PM
Tue, Dec 7
5:00 PM
Tue, Dec 7
6:00 PM
Tue, Dec 7
7:00 PM
Tue, Dec 7
8:00 PM
Tue, Dec 7
9:00 PM
Tue, Dec 7
10:00 PM
Tue, Dec 7
11:00 PM
Wed, Dec 8
12:00 AM
Wed, Dec 8
1:00 AM
Wed, Dec 8
2:00 AM
Wed, Dec 8
3:00 AM
Wed, Dec 8
4:00 AM
Wed, Dec 8
5:00 AM
Wed, Dec 8
6:00 AM
Wed, Dec 8
7:00 AM
Wed, Dec 8
8:00 AM
Wed, Dec 8
9:00 AM
Wed, Dec 8
10:00 AM
Wed, Dec 8
11:00 AM
Wed, Dec 8
12:00 PM
Wed, Dec 8
1:00 PM
Wed, Dec 8
2:00 PM
Wed, Dec 8
3:00 PM
Wed, Dec 8
4:00 PM
Wed, Dec 8
5:00 PM
Wed, Dec 8
6:00 PM
Wed, Dec 8
7:00 PM
Wed, Dec 8
8:00 PM
Wed, Dec 8
9:00 PM
Wed, Dec 8
10:00 PM
Wed, Dec 8
11:00 PM
Thu, Dec 9
12:00 AM
Thu, Dec 9
1:00 AM
Thu, Dec 9
2:00 AM
Thu, Dec 9
3:00 AM
Thu, Dec 9
4:00 AM
Thu, Dec 9
5:00 AM
Thu, Dec 9
6:00 AM
Thu, Dec 9
7:00 AM
Thu, Dec 9
8:00 AM
Thu, Dec 9
9:00 AM
Thu, Dec 9
10:00 AM
Thu, Dec 9
11:00 AM
Condition
Clouds

Clouds

Clouds

Clouds

Clouds

Clouds

Clouds

Clouds

Clouds

Clouds

Clouds

Rain

Rain

Clouds

Clouds

Clouds

Clouds

Clouds

Clouds

Clouds

Clouds

Clouds

Clouds

Clouds

Clouds

Clear

Clear

Clear

Clear

Clear

Clear

Clear

Clear

Clear

Clear

Clear

Clouds

Clouds

Clouds

Clouds

Clouds

Clouds

Clouds

Clouds

Clouds

Clouds

Clouds

Clouds
Temperature 44°F44°F45°F45°F45°F44°F43°F44°F44°F44°F45°F45°F44°F44°F44°F44°F44°F45°F45°F44°F45°F48°F50°F53°F56°F57°F58°F57°F53°F48°F47°F46°F45°F44°F43°F43°F43°F43°F43°F43°F43°F43°F43°F44°F48°F52°F55°F55°F
Feels Like 42°F42°F45°F43°F43°F44°F43°F44°F44°F44°F45°F45°F44°F44°F44°F44°F44°F45°F45°F44°F45°F46°F48°F51°F53°F55°F55°F55°F51°F47°F45°F43°F42°F43°F42°F41°F41°F40°F40°F40°F41°F40°F40°F41°F45°F51°F54°F54°F
Cloudiness 94%100%99%98%98%97%95%100%97%98%99%99%99%100%100%100%100%100%100%100%100%100%100%84%70%0%0%0%0%0%0%0%0%1%1%6%22%98%99%96%96%94%94%100%100%100%100%100%
Visibility 6 mi6 mi6 mi6 mi6 mi6 mi6 mi6 mi6 mi6 mi6 mi6 mi6 mi6 mi6 mi6 mi6 mi6 mi6 mi6 mi6 mi6 mi6 mi6 mi6 mi6 mi6 mi6 mi6 mi6 mi6 mi6 mi6 mi6 mi6 mi6 mi6 mi6 mi6 mi6 mi6 mi6 mi6 mi6 mi6 mi6 mi6 mi6 mi
Precipitation 0%0%0%0%0%0%0%5%8%2%5%25%21%42%36%34%34%24%24%2%0%0%0%0%0%0%0%0%0%0%0%0%0%0%0%0%0%0%0%0%0%0%0%0%0%0%0%0%
Humidity 38%38%38%40%45%50%56%59%59%61%61%66%81%82%83%84%85%85%86%88%82%73%64%57%53%51%50%51%64%71%74%74%74%75%76%77%77%79%80%83%84%87%90%91%86%79%78%83%
Dew Point 21°F21°F22°F23°F25°F27°F28°F30°F30°F31°F32°F34°F38°F39°F39°F40°F40°F40°F41°F40°F40°F39°F38°F38°F39°F39°F39°F39°F41°F39°F38°F38°F37°F36°F36°F36°F36°F37°F37°F38°F39°F39°F40°F41°F43°F46°F48°F50°F
Pressure 30.12"30.12"30.12"30.12"30.09"30.09"30.12"30.09"30.09"30.06"30.06"30.06"30.03"30.03"30.03"30.03"30"30"30.03"30.03"30.06"30.06"30.09"30.06"30.06"30.03"30"30.03"30.03"30.06"30.09"30.09"30.09"30.09"30.09"30.09"30.09"30.09"30.09"30.09"30.06"30.06"30.06"30.09"30.09"30.09"30.09"30.06"
Wind Speed 4 mph4.2 mph3 mph3.4 mph3.3 mph2.7 mph1.1 mph2.9 mph2.9 mph2.7 mph2.5 mph1.4 mph2.6 mph2.3 mph1.5 mph1.1 mph1.3 mph1.2 mph1.7 mph2.9 mph2.4 mph3.9 mph5 mph5.4 mph4.1 mph4.3 mph4.4 mph4.3 mph3.7 mph3.9 mph4.5 mph4.5 mph4.6 mph3.3 mph3.5 mph4.1 mph4.3 mph4.6 mph4.2 mph4.5 mph4.2 mph5.2 mph4.8 mph4.6 mph6 mph8.6 mph9.3 mph7.4 mph
Wind
Direction
54°
NE
64°
ENE
74°
ENE
65°
ENE
79°
E
100°
E
289°
WNW
97°
E
102°
ESE
108°
ESE
117°
ESE
237°
WSW
185°
S
203°
SSW
240°
WSW
297°
WNW
296°
WNW
273°
W
293°
WNW
338°
NNW
341°
NNW
333°
NNW
333°
NNW
343°
NNW
330°
NNW
315°
NW
327°
NNW
343°
NNW
11°
N
16°
NNE
29°
NNE
37°
NE
58°
ENE
82°
E
93°
E
104°
ESE
107°
ESE
139°
SE
157°
SSE
147°
SSE
141°
SE
151°
SSE
149°
SSE
149°
SSE
150°
SSE
163°
SSE
165°
SSE
156°
SSE

Daily Forecast

Date High Low Precip. Humidity
Today
Dec 7

Rain
45 °F
33 °F
25%
40%
Wednesday
Dec 8

Rain
58 °F
43 °F
42%
57%
Thursday
Dec 9

Rain
63 °F
43 °F
54%
86%
Friday
Dec 10

Rain
69 °F
64 °F
88%
95%
Saturday
Dec 11

Rain
69 °F
41 °F
100%
81%
Sunday
Dec 12

Clear
50 °F
35 °F
0%
38%
Monday
Dec 13

Clear
56 °F
35 °F
0%
41%
Tuesday
Dec 14

Clouds
62 °F
40 °F
0%
65%
Wednesday
Dec 15

Clouds
65 °F
47 °F
0%
61%
Thursday
Dec 16

Clouds
67 °F
48 °F
0%
64%
Friday
Dec 17

Rain
62 °F
55 °F
97%
95%
Saturday
Dec 18

Clouds
69 °F
58 °F
27%
74%
Sunday
Dec 19

Rain
67 °F
50 °F
40%
78%
Monday
Dec 20

Rain
53 °F
46 °F
40%
73%
Tuesday
Dec 21

Rain
52 °F
49 °F
74%
90%
Wednesday
Dec 22

Clouds
50 °F
41 °F
8%
53%

Temperature 8-14 Day Outlook



Precipitation 8-14 Day Outlook




Quick Links
Smith Lake News
Smith Lake Photos
Smith Lake Videos




About Us
Contact Us
Site Map
Search Site
Advertise With Us
   
www.SmithLake.info
THE SMITH LAKE WEBSITE

Copyright 2021, Lakes Online
Privacy    |    Legal